TIANMU-1 07

Last updated on Mon Jun 22 2026 00:02:46 GMT+0000 (Coordinated Universal Time)

1 57399U 23101A 26172.48254884 .00004853 00000+0 17043-3 0 9998 2 57399 97.2589 223.0524 0004274 112.8221 247.3472 15.29848940162308
UTC large
Height (km)
Speed (km/s)
/
Latitude / Longitude
Inclination (degrees)
Orbital Period (minutes)
Azimuth
Elevation
Range (km)
Doppler Factor

Next 0 passes for location: London (51.5072 / 0.1276)

No passes found over London.
TIANMU-1 07